www.pogodaiklimat.ru

Погода и климат >> Архив погоды >> Бангладеш >> Тангайл


ПОГОДА в Тангайле

  • Прогноз погоды в Тангайле
  • Монитор погоды в Тангайле

АРХИВ ПОГОДЫ в Тангайле

Время (UTC), дата Ветер
(напр.,м/с)
 
Видим.   Явления Облачность Т
(С)
Тd
(С)
f
(%)
Тe
(С)
Тes
(С)
Комфортность P
(гПа)
Po
(гПа)
Тmin
(С)
Tmax
(С)
R
(мм)
R24
(мм)
S
(см)
12 13.09 ЮВ 1 4000 м слаб. дождь {метель} 10/6 240 м
[St As op]
+25.8 +26.0 100 +38 +38 очень
душно
1005.6 1004.4 +31.2 5
15 13.09 штиль 0 4000 м слаб. дождь {метель} 10/6 240 м
[St As op]
+25.6 +25.0 96 +36 +36 очень
душно
1006.6 1005.5
18 13.09 штиль 0 4000 м слаб. дождь {метель} 10/6 240 м
[St As op]
+25.4 +25.0 98 +36 +36 очень
душно
1006.9 1005.8 6
00 14.09 штиль 0 4000 м {дождь} 10/6 240 м
[St As op]
+26.9 +26.0 95 +40 +40 очень
душно
1006.1 1005.0 1
03 14.09 ЮВ 1 5000 м 10/6 240 м
[St As op]
+28.4 +26.0 87 +43 +44 опасность
перегрева
1007.8 1006.6 +25.0
06 14.09 Ю 1 6000 м 10/4 450 м
[Sc As op]
+31.2 +26.0 74 +47 +49 опасность
перегрева
1007.4 1006.2
09 14.09 штиль 0 6000 м 6/3 540 м
[Cu Sc Ac trans]
+33.4 +25.0 62 +47 +54 опасность
перегрева
1004.7 1003.6
12 14.09 ЮВ 1 6000 м в посл. час дождь 6/4 450 м
[Sc diur, vesp Ac trans]
+31.2 +25.0 70 +45 +45 опасность
перегрева
1004.1 1003.0 +34.0 0.4
15 14.09 штиль 0 4000 м 1/1 540 м
[Sc]
+27.9 +26.0 89 +42 +42 опасность
перегрева
1006.2 1005.0
18 14.09 штиль 0 4000 м 4/0
[Ac trans]
+27.2 +25.0 88 +39 +39 очень
душно
1006.7 1005.5
00 15.09 ЮВ 1 5000 м 10/6 240 м
[St As op]
+27.4 +26.0 92 +41 +41 опасность
перегрева
1005.7 1004.5
03 15.09 ЮВ 1 6000 м 8/3 450 м
[Sc As trans]
+30.2 +27.0 83 +47 +52 опасность
перегрева
1007.0 1005.8 +26.8
06 15.09 ЮВ 1 6000 м 8/4 450 м
[Sc As trans]
+33.4 +26.0 65 +49 +57 опасность
перегрева
1005.6 1004.5
09 15.09 ЮВ 1 7000 м 8/4 450 м
[Cb calv Ac As]
+33.5 +26.0 65 +49 +53 опасность
перегрева
1002.8 1001.7
12 15.09 штиль 0 6000 м 4/1 450 м
[Sc Ac trans]
+31.5 +27.0 77 +49 +49 опасность
перегрева
1002.6 1001.5 +34.5
15 15.09 штиль 0 4000 м 8/4 420 м
[Sc Ac As]
+29.5 +27.0 86 +46 +46 опасность
перегрева
1005.1 1004.0
18 15.09 штиль 0 4000 м 10/6 450 м
[Sc As op]
+28.3 +26.0 87 +42 +42 опасность
перегрева
1005.4 1004.3
00 16.09 штиль 0 5000 м 10/8 240 м
[St As op]
+28.5 +28.0 97 +47 +47 опасность
перегрева
1004.7 1003.6
03 16.09 Ю 2 5000 м 10/6 240 м
[St As op]
+29.0 +27.0 89 +46 +46 опасность
перегрева
1005.7 1004.5 +27.4
06 16.09 Ю 1 6000 м 10/4 450 м
[Sc As op]
+30.7 +26.0 76 +46 +49 опасность
перегрева
1006.0 1004.9
09 16.09 штиль 0 6000 м 10/4 450 м
[Sc As op]
+31.5 +27.0 77 +49 +51 опасность
перегрева
1003.1 1002.0
12 16.09 штиль 0 5000 м 6/3 540 м
[Cu Sc Ac trans]
+30.5 +27.0 82 +48 +48 опасность
перегрева
1002.6 1001.5 +31.7
15 16.09 штиль 0 4000 м ясно +27.9 +26.0 89 +42 +42 опасность
перегрева
1004.6 1003.5
18 16.09 штиль 0 4000 м ясно +27.5 +26.0 92 +41 +41 опасность
перегрева
1005.2 1004.0
21 16.09 штиль 0 4000 м 6/3 540 м
[Cu Sc Ac trans]
+27.2 +26.0 93 +41 +41 опасность
перегрева
1005.0 1003.8
00 17.09 штиль 0 4000 м 10/8 240 м
[St As op]
+26.9 +26.0 95 +40 +40 очень
душно
1005.3 1004.1
03 17.09 Ю 1 5000 м 10/4 450 м
[Sc As op]
+29.2 +27.0 88 +46 +47 опасность
перегрева
1007.8 1006.6 +26.2
06 17.09 Ю 1 6000 м 4/4 450 м
[Cb calv]
+33.4 +25.0 62 +47 +61 опасность
перегрева
1007.4 1006.3
09 17.09 Ю 1 6000 м 5/5 450 м
[Cu Sc]
+33.8 +25.0 60 +47 +53 опасность
перегрева
1004.5 1003.4
12 17.09 штиль 0 6000 м 3/3 540 м
[Cu Sc]
+32.0 +26.0 71 +48 +48 опасность
перегрева
1005.1 1003.9 +34.8
15 17.09 штиль 0 4000 м ясно +29.4 +26.0 82 +44 +44 опасность
перегрева
1006.4 1005.3
18 17.09 штиль 0 4000 м ясно +29.0 +27.0 89 +46 +46 опасность
перегрева
1007.3 1006.2
00 18.09 штиль 0 4000 м мгла 3/0
[Ac und Cc]
+27.4 +27.0 98 +43 +43 опасность
перегрева
1007.9 1006.7
03 18.09 ЮВ 1 6000 м 3/3 540 м
[Sc]
+32.6 +28.0 77 +53 +61 опасность
перегрева
1009.8 1008.6 +26.5
06 18.09 В 1 6000 м 4/4 540 м
[Cb calv]
+34.4 +25.0 58 +48 +62 опасность
перегрева
1009.6 1008.5
09 18.09 штиль 0 7000 м 6/4 450 м
[Sc Ac trans]
+34.7 +26.0 61 +51 +57 опасность
перегрева
1007.3 1006.1
12 18.09 штиль 0 6000 м в посл. час гроза {дождь} 5/3 420 м
[Sc Ac trans]
+26.7 +25.0 90 +38 +38 очень
душно
1007.3 1006.2 +35.0 35
15 18.09 штиль 0 4000 м ясно +27.0 +25.0 89 +39 +39 очень
душно
1009.2 1008.1
18 18.09 штиль 0 4000 м мгла ясно +26.8 +25.0 90 +39 +39 очень
душно
1009.7 1008.6
21 18.09 штиль 0 3000 м мгла ясно +26.5 +26.0 97 +40 +40 очень
душно
1009.6 1008.5
00 19.09 штиль 0 3500 м мгла ясно +26.2 +25.0 93 +37 +37 очень
душно
1009.7 1008.5
03 19.09 штиль 0 5000 м ясно +31.8 +27.0 76 +50 +62 опасность
перегрева
1010.4 1009.2 +25.4
06 19.09 ЮВ 1 6000 м 4/4 450 м
[Cb calv]
+33.2 +25.0 62 +47 +61 опасность
перегрева
1010.1 1008.9
09 19.09 ЮВ 1 6000 м 4/4 420 м
[Cb calv]
+35.5 +21.0 43 +43 +49 опасность
перегрева
1006.7 1005.5
12 19.09 штиль 0 5000 м ясно +32.0 +26.0 71 +48 +48 опасность
перегрева
1006.8 1005.6 +35.7
15 19.09 штиль 0 4000 м ясно +28.7 +27.0 91 +45 +45 опасность
перегрева
1008.3 1007.1
18 19.09 штиль 0 4000 м ясно +28.0 +26.0 89 +42 +42 опасность
перегрева
1008.9 1007.7
00 20.09 штиль 0 4000 м мгла 8/3 450 м
[Sc As trans]
+26.9 +26.0 95 +40 +40 очень
душно
1007.9 1006.8
03 20.09 штиль 0 6000 м ясно +32.0 +27.0 75 +50 +62 опасность
перегрева
1009.3 1008.1 +26.2
06 20.09 ЮВ 1 6000 м 4/4 450 м
[Cb calv]
+33.4 +25.0 62 +47 +61 опасность
перегрева
1008.8 1007.6
09 20.09 СВ 2 6000 м 3/3 540 м
[Cu Sc]
+35.5 +24.0 52 +47 +54 опасность
перегрева
1004.9 1003.8

 

Местоположение метеостанции Тангайл (Бангладеш): широта 24.25 долгота 89.93 высота над уровнем моря 20 м.

В архиве по умолчанию представлена погода в Тангайле за последнюю неделю. Архивные данные за месяц целиком и за предыдущие месяцы, начиная с января 2011 года, Вы можете получить, выбрав интересующий диапазон дат из раскрывающегося списка и нажав кнопку "Ввод!".


*Определитесь, кто Вы:
робот инопланетянин человек

Внимание! Время в таблицах - всемирное. Для получения местного времени необходимо прибавить поправку, которая равна 6.5 ч.

Смотрите также архив погоды в соседних городах и на ближайших метеорологических станциях:

Погода в Дакке (Бангладеш) (70 км)
Погода в Тараше (Бангладеш) (71 км)
Погода в Фаридпуре (Бангладеш) (73 км)
Погода в Маймансингхе (Бангладеш) (73 км)
Погода в Богре (Бангладеш) (88 км)
Погода в Ишварди (Бангладеш) (90 км)
Погода в Никли (Бангладеш) (102 км)
Погода в Нетрокона-Садаре (Бангладеш) (108 км)
Погода в Кумархали (Бангладеш) (114 км)
Погода в Мадарипуре (Бангладеш) (123 км)

Пояснения к столбцам:

Ветер - указаны скорость ветра в м/с - средняя за 10 мин, порывы в срок и между сроками (в фигурных скобках) и направление, откуда дует ветер: С - северный, СВ - северо-восточный, В - восточный, ЮВ - юго-восточный, Ю - южный, ЮЗ - юго-западный, З - западный, СЗ - северо-западный.
Видимость - горизонтальная дальность видимости в метрах или километрах. При видимости от 1 до 10 км при отсутствии осадков обычно наблюдается дымка, при ухудшении видимости до 1 км и менее - туман. В сухую погоду видимость может ухудшаться дымом, пылью или мглою.
Явления - указаны атмосферные явления, наблюдавшиеся в срок или в последний час перед сроком; фигурными скобками обозначены явления, наблюдавшиеся между сроками (за 1-3 часа до срока); квадратными скобками обозначены град или гололедные отложения с указанием их диаметра в мм.
Облачность - указаны через наклонную черту общая и нижняя облачность в баллах и высота нижней границы облаков в метрах; квадратными скобками обозначены формы облаков: Ci - перистые, Cs - перисто-слоистые, Cc - перисто-кучевые, Ac - высококучевые, As - высокослоистые, Sc - слоисто-кучевые, Ns - слоисто-дождевые, Cu - кучевые, Cb - кучево-дождевые. Подробнее классификацию облаков см. в Атласе облаков (PDF).
T - Температура воздуха - температура, измеренная на высоте 2 м над землей.
Td - Температура точки росы - температура, при понижении до которой содержащийся в воздухе водяной пар достигнет насыщения.
f - Относительная влажность воздуха - влажноcть воздуха, измеренная на высоте 2 м над землей.
Te - Эффективная температура - температура, которую ощущает одетый по сезону человек в тени. Характеристика душности погоды. При расчете учитывается влияние влажности воздуха и скорости ветра на теплоощущения человека.
Tes - Эффективная температура на солнце - температура, которую ощущает человек, с поправкой на солнечный нагрев. Характеристика знойности погоды. Зависит от высоты солнца над горизонтом, облачности и скорости ветра. Ночью, в пасмурную погоду, а также при ветре 12 м/с и более поправка равна нулю.
P - Атмосферное давление - приведенное к уровню моря атмосферное давление.
Po - Атмосферное давление - измеренное на уровне метеостанции атмосферное давление.
Tmin - Минимальная температура - минимум температуры воздуха на высоте 2 м над землей.
Tmax - Максимальная температура - максимум температуры воздуха на высоте 2 м над землей.
R - Количество осадков - Количество выпавших осадков за период времени, мм. При наведении курсора мыши на число - период времени, за который выпало указанное количество осадков.
R24 - Количество осадков - Количество выпавших осадков за 24 часа, мм.
S - Снежный покров - Высота снежного покрова, см. При наведении курсора мыши на число - состояние снежного покрова и степень покрытия местности в баллах.